Juan de Fuca Strait - central strait: Past 24 Hour Conditions

 

Race Rocks Lightstation

02:00 PM PDT 23 October 2014
This table is a summary of hourly weather conditions for the past 24 hours.
Date / Time
(PDT)
Wind(knots) Conditions Visibility(km) Pressure(kPa) Air tempC) Relative humidity(%) Dew pointC)
23 October 2014
14:00 WSW 20 N/A N/A 100.8 13 66 7
13:00 SSW 14 N/A N/A 100.8 13 64 7
12:00 WSW 11 N/A N/A 100.8 11 86 9
11:00 WNW 1 N/A N/A 100.6 12 85 9
10:00 SSE 3 N/A N/A 100.6 12 77 8
9:00 SSW 4 N/A N/A 100.5 11 85 9
8:00 SE 9 N/A N/A 100.5 11 92 10
7:00 NNW 8 N/A N/A 100.4 11 93 10
6:00 ENE 9 N/A N/A 100.4 11 91 10
5:00 E 6 N/A N/A 100.4 11 91 10
4:00 ESE 9 N/A N/A 100.5 12 82 10
3:00 S 8 N/A N/A 100.5 13 76 9
2:00 SW 18 N/A N/A 100.4 13 74 9
1:00 SW 28 N/A N/A 100.3 13 68 7
0:00 W 31 gust 36 N/A N/A 100.3 12 83 9
22 October 2014
23:00 W 27 N/A N/A 100.1 12 83 9
22:00 W 22 N/A N/A 100.1 12 85 10
21:00 WNW 12 N/A N/A 100.0 12 94 11
20:00 SW 14 N/A N/A 99.9 12 96 11
19:00 N 9 N/A N/A 99.8 13 97 12
18:00 NNE 11 N/A N/A 99.9 12 97 11
17:00 NNE 13 N/A N/A 100.0 12 95 12
16:00 NNE 7 N/A N/A 100.2 13 93 12
15:00 NNE 11 N/A N/A 100.2 13 91 11
14:00 NNE 6 N/A N/A 100.3 12 90 11
 
Map of Pacific - South Coast marine weather areas Tsawwassen Ferry Terminal South Nomad - 46036 Sentry Shoal - 46131 South Brooks - 46132 Halibut Bank - 46146 South Moresby - 46147 South Hecate Strait - 46185 West Sea Otter - 46204 La Perouse Bank - 46206 East Dellwood - 46207 Discovery Island Esquimalt Harbour Kelp Reefs Malahat Race Rocks Lightstation Saturna Island Sheringham Point University of Victoria Victoria Gonzales Victoria Int'l Airport Ballenas Islands Campbell River Airport Comox Airport Entrance Island Fanny Island Nanaimo Airport Port Hardy Airport Sisters Islets Estevan Point Sartine Island Solander Island Tofino Airport Grief Point Powell River Airport Sechelt Cape St.James Bella Bella Airport Bella Coola Airport Cathedral Point Herbert Island Point Atkinson Sand Heads Lightstation Vancouver Harbour Vancouver Int'l Airport West Vancouver Port Alberni Howe Sound - Pam Rocks Squamish Airport